Flag for U.S.A. Weather past 2 weeks in Santa Clara, California, U.S.A.

36 °F


Feels Like: 36 °F
Forecast: 32 / 54 °F
Wind: No wind

Location: San Jose International Airport

Current Time: Nov 28, 2015 at 3:38:32 AM

Latest Report: Nov 28, 2015 at 2:53 AM

Visibility: N/A

Pressure: 30.14 "Hg

Humidity: 73%

Dew point: 28 °F

Location of Santa ClaraLocation

Historic Weather in Santa Clara — Graph


Santa Clara temperature yesterday

Maximum temperature yesterday: 55 °F (at 2:53 PM)
Minimum temperature yesterday: 35 °F (at 6:53 AM)
Average temperature yesterday: 45 °F

Past Weeks' High & Low Weather Summary

High71 °F (Nov 20, 12:53 PM)100% (Nov 15, 7:53 AM)30.36 "Hg (Nov 15, 7:53 AM)
Low35 °F (Nov 27, 6:53 AM)27% (Nov 27, 5:53 PM)29.79 "Hg (Nov 15, 3:53 AM)
Average52 °F71%30.06 "Hg
* Reported Nov 13 1:53 AM — Nov 28 1:53 AM, Santa Clara, Weather by CustomWeather, © 2015

Note: Actual official high and low records may vary slightly from our data, if they occured in-between our weather recording intervals... More about our weather records


Santa Clara weather history for previous 24 hours

Time TempWeatherWind HumidityBarometerVisibility
1:53 AM
Sat, Nov 28
37 °FClear.No wind67%30.14 "HgN/A
12:53 AM37 °FClear.5 mph65%30.13 "HgN/A
11:53 PM
Fri, Nov 27
38 °FClear.3 mph65%30.12 "Hg10 mi
9:53 PM43 °FPassing clouds.6 mph51%30.10 "Hg10 mi
8:53 PM46 °FPassing clouds.3 mph46%30.10 "Hg10 mi
7:53 PM46 °FPassing clouds.3 mph48%30.11 "Hg10 mi
6:53 PM47 °FPassing clouds.7 mph42%30.10 "Hg10 mi
5:53 PM53 °FPassing clouds.8 mph27%30.10 "Hg10 mi
4:53 PM54 °FPassing clouds.5 mph31%30.08 "Hg10 mi
3:53 PM55 °FScattered clouds.8 mph31%30.08 "Hg10 mi
2:53 PM55 °FScattered clouds.7 mph31%30.08 "Hg10 mi
1:53 PM54 °FScattered clouds.9 mph33%30.10 "Hg10 mi
12:53 PM54 °FScattered clouds.13 mph34%30.12 "Hg10 mi
11:53 AM54 °FPassing clouds.13 mph30%30.12 "Hg10 mi
10:53 AM52 °FPassing clouds.6 mph32%30.13 "Hg10 mi
9:53 AM49 °FPassing clouds.8 mph38%30.14 "Hg10 mi
8:53 AM44 °FPassing clouds.No wind58%30.15 "Hg10 mi
7:53 AM36 °FPassing clouds.No wind79%30.15 "Hg10 mi
6:53 AM35 °FPassing clouds.3 mph78%30.14 "Hg10 mi
5:53 AM36 °FClear.No wind75%30.13 "Hg10 mi
4:53 AM36 °FClear.No wind75%30.12 "HgN/A
3:53 AM38 °FClear.No wind70%30.12 "HgN/A
Weather by CustomWeather, © 2015

See weather overviewHow to use our weather pages